Regional Weather Roundup
Issued by NWS Mt. Holly, NJ

Home | Current Version | Previous Version | Text Only | Print | Product List | Glossary On
Versions: 1 2 3 4 5 6 7 8 9 10 11 12 13 14 15 16 17 18 19 20 21 22 23 24 25 26 27
000
ASUS41 KPHI 230910
RWRPHI

REGIONAL WEATHER ROUNDUP
NATIONAL WEATHER SERVICE MOUNT HOLLY NJ
500 AM EDT WED APR 23 2014

NOTE:  "FAIR" INDICATES FEW OR NO CLOUDS BELOW 12,000 FEET WITH NO
SIGNIFICANT WEATHER AND/OR OBSTRUCTIONS TO VISIBILITY.

 * = STATION DOES NOT REPORT PRECIPITATION (E.G. RAIN, SNOW, ETC.)
        OR FOG.

NJZ015>026-231000-
SOUTHERN NEW JERSEY

CITY           SKY/WX    TMP DP  RH WIND       PRES   REMARKS
POMONA         MOCLDY    50  32  50 W21G29    29.61R
RIO GRANDE*      N/A    N/A N/A N/A MISG        N/A
MILLVILLE      MOCLDY    50  33  52 NW15G23   29.65R
WRIGHTSTOWN    MOCLDY    49  33  52 W15G26    29.58R
MOUNT HOLLY    CLEAR     49  32  52 W12G24    29.62R
TRENTON        CLOUDY    49  31  49 NW21G36   29.58S

$$
NJZ001>014-231000-
NORTHERN NEW JERSEY

CITY           SKY/WX    TMP DP  RH WIND       PRES   REMARKS
SUSSEX         CLOUDY    49  36  61 CALM      29.56S
ANDOVER*         N/A     47  34  60 CALM      29.58R
MORRISTOWN     CLOUDY    52  39  62 NW13G21   29.56R
NEWARK         CLOUDY    55  44  66 NW18G29   29.52R
TETERBORO      CLOUDY    54  43  66 NW20G30   29.52R
CALDWELL       CLOUDY    50  40  68 NW10G24   29.55R
SOMERVILLE     CLOUDY    51  35  54 NW17G25   29.56R
ALLAIRE*       CLOUDY    52  32  46 W15G23    29.55R
TOMS RIVER*    MOCLDY    50  32  50 W16G22    29.58R

$$
PAZ043-044-047-054-055-060>062-066>071-231000-
EASTERN PENNSYLVANIA

CITY           SKY/WX    TMP DP  RH WIND       PRES   REMARKS
PHILADELPHIA   PTCLDY    50  31  48 NW13      29.65R
NORTH PHILA    CLEAR     49  32  52 W10       29.63R
BLUE BELL      MOCLDY    48  34  57 NW5       29.62R
DOYLESTOWN     MOCLDY    46  33  60 NW17G25   29.60R
QUAKERTOWN*    CLOUDY    46  32  57 W13       29.62S
POTTSTOWN      CLOUDY    46  34  62 NW10      29.64S
LANCASTER      MOCLDY    47  34  60 NW22G29   29.65F
COATESVILLE    CLEAR     45  34  65 NW18G24   29.64S
READING        PTCLDY    48  33  56 NW13      29.62F
ALLENTOWN      CLOUDY    48  32  53 W9        29.61S
MOUNT POCONO   CLOUDY    40  30  67 NW18G31   29.56S WCI  31
HAZLETON       CLOUDY    41  32  70 W18G25    29.63S
WILKES BARRE   CLOUDY    44  33  65 W18       29.61R

$$
DEZALL-MDZ008-012-015-019-020-231000-
DELAWARE AND EASTERN MARYLAND

CITY           SKY/WX    TMP DP  RH WIND       PRES   REMARKS
WILMINGTON     CLEAR     49  33  54 W16G23    29.65S
DOVER          PTCLDY    50  34  53 NW16G22   29.63R
GEORGETOWN     CLOUDY    54  34  46 NW14G24   29.67R
EASTON         PTCLDY    53  37  55 NW15G23   29.72S
PATUXENT       MOCLDY    53  35  50 NW15      29.69R
OCEAN CITY     CLOUDY    55  35  47 NW20G29   29.64R
WALLOPS ISLAND CLOUDY    58  44  60 N17G28    29.66R
CAMBRIDGE      MOCLDY    55  36  47 NW9G21    29.68S
SALISBURY      CLOUDY    56  34  43 NW18G31   29.66R

$$
PAZ001-021-NYZ056-072-MDZ011-DCZ001-231000-
OTHER NEARBY LOCATIONS

CITY           SKY/WX    TMP DP  RH WIND       PRES   REMARKS
HARRISBURG     MOCLDY    49  34  56 NW20      29.68R
STATE COLLEGE  CLOUDY    41  29  62 NW14G28   29.72S
WILLIAMSPORT   CLOUDY    45  31  58 W14G24    29.67R
BINGHAMTON     LGT RAIN  38  35  89 NW7       29.59R WCI  33
NEW YORK CITY  CLOUDY    55  42  61 VRB6      29.54R
BALTIMORE      PTCLDY    48  34  58 W10       29.70R
WASHINGTON DC  CLEAR     54  32  43 NW15G25   29.73R

$$



USA.gov is the U.S. government's official web portal to all federal, state and local government web resources and services.